Regional Weather Roundup
Issued by NWS

Home | Current Version | Previous Version | Text Only | Print | Product List | Glossary Off
Versions: 1 2 3 4 5 6 7 8 9 10 11 12 13 14 15 16 17 18 19 20 21 22 23 24 25 26 27 28 29 30 31 32 33 34 35 36 37 38 39 40 41 42 43 44 45 46 47 48 49 50

000
ASUS43 KFSD 191910
RWRSD

WEATHER ROUNDUP FOR SOUTH DAKOTA
NATIONAL WEATHER SERVICE SIOUX FALLS SD
100 PM CST FRI JAN 19 2018

NOTE: "FAIR" INDICATES FEW OR NO CLOUDS BELOW 12,000 FEET WITH NO
SIGNIFICANT WEATHER AND/OR OBSTRUCTIONS TO VISIBILITY.


SDZ001>005-009-010-012>017-192000-
NORTHWEST AND NORTH CENTRAL SOUTH DAKOTA

CITY           SKY/WX    TMP DP  RH WIND       PRES   REMARKS
BUFFALO          N/A     38  31  76 W14       29.61F
FAITH            N/A     40  33  76 NW10      29.65F
MOBRIDGE       CLOUDY    44  32  62 NW10      29.58F
$$

SDZ012>016-024>037-041>051-057-063-072>074-192000-
SOUTHWEST AND SOUTH CENTRAL SOUTH DAKOTA

CITY           SKY/WX    TMP DP  RH WIND       PRES   REMARKS
RAPID CTY ARPT CLOUDY    43  30  60 N15       29.69F
PIERRE         CLOUDY    45  31  58 NW16      29.61F
CUSTER         CLOUDY    45  23  42 SW8G17    29.67F
ELLSWORTH AFB  DRIZZLE   43  32  65 N13       29.67F
PHILIP         CLOUDY    48  32  53 N15       29.67F
PINE RIDGE     CLOUDY    47  31  53 NE9       29.69S
SPEARFISH        N/A     41  30  65 CALM      29.69F
WINNER         FAIR      51  34  52 NW14      29.62R
$$

SDZ004>011-016>023-039-040-192000-
NORTHEAST SOUTH DAKOTA

CITY           SKY/WX    TMP DP  RH WIND       PRES   REMARKS
ABERDEEN       MOSUNNY   48  33  56 NW9       29.56F
WATERTOWN      CLOUDY    42  32  67 NW13      29.50S
BROOKINGS      CLOUDY    43  32  65 SW8       29.51F
SISSETON         N/A     50  30  46 NW17      29.50F
$$

SDZ017-020-022-023-036>040-048>070-192000-
SOUTHEAST SOUTH DAKOTA

CITY           SKY/WX    TMP DP  RH WIND       PRES   REMARKS
SIOUX FALLS    CLOUDY    48  35  60 SW8       29.54R
HURON          PTSUNNY   44  32  62 NW13      29.56R
CHAMBERLAIN    CLOUDY    43  33  66 NW8       29.60R
MITCHELL       CLOUDY    45  34  65 W9        29.57F
YANKTON        CLOUDY    61  30  31 W17       29.55F
$$

ABBREVIATIONS USED IN REMARKS
   TC - TEMPERATURE IN CELSIUS
  WCI - WIND CHILL INDEX
   HX - HEAT INDEX
  VSB - VISIBILITY





USA.gov is the U.S. government's official web portal to all federal, state and local government web resources and services.